SCP
0 0 0 1 1 1 1 1 2 2 2 1 1 1 1 1 1 1 1 1 1 1 1 1 1 0 0 0 1 1 1 1 1 0 0 0 0 0 0 0 0 0 0
0 0 0 1 1 1 1 1 1 2 2 2 1 1 1 1 1 1 1 1 1 1 1 1 1 1 0 0 1 1 1 1 1 1 0 0 0 0 0 0 0 0 0
0 0 1 1 1 1 1 1 1 1 2 2 1 1 1 1 1 1 1 1 1 1 1 1 1 1 1 1 1 1 1 1 1 0 0 0 0 0 0 0 0 0 0
0 0 1 1 1 1 1 1 1 1 1 1 1 1 1 1 1 1 1 1 1 1 1 1 1 1 1 1 1 1 1 1 1 0 0 0 0 0 0 0 0 0 0
0 0 1 1 1 1 1 1 1 1 1 1 1 1 1 1 1 0 0 1 1 1 1 1 1 1 1 1 1 1 1 1 0 0 0 0 0 0 0 0 0 0 0
0 0 0 1 1 1 1 1 1 1 1 1 1 1 1 1 1 0 0 0 1 1 1 1 1 1 1 1 1 1 1 1 0 0 0 0 0 0 0 0 0 0 0
0 0 0 1 1 1 1 1 1 1 1 1 1 1 1 1 1 1 1 1 1 1 1 1 1 1 1 1 1 1 1 0 0 0 0 0 0 0 0 0 0 0 0
0 0 0 1 1 1 1 1 1 1 1 1 1 1 1 1 0 0 1 1 1 1 1 1 1 1 1 1 1 0 0 0 0 0 0 0 0 0 0 0 0 0 0
0 0 0 1 1 1 1 1 1 0 1 1 1 1 1 1 0 0 0 1 1 1 1 1 1 1 1 1 1 0 0 0 0 0 0 0 0 0 0 0 0 0 0
0 0 1 1 1 0 0 0 0 0 0 0 0 0 0 0 0 0 0 0 1 1 1 1 1 1 1 1 0 0 0 0 0 0 0 0 0 0 1 1 0 0 0
0 1 1 1 1 0 0 0 0 0 0 0 0 0 0 0 0 0 0 0 0 1 1 1 1 1 1 0 0 0 0 0 0 0 0 0 0 1 1 1 1 0 0
1 1 1 1 1 1 0 0 0 0 0 0 0 0 0 0 0 0 0 0 0 0 0 0 1 1 0 0 0 0 0 0 0 0 0 0 0 1 1 1 1 0 0
1 1 1 1 1 1 0 0 0 0 0 0 0 0 0 0 0 0 0 0 0 0 0 0 0 0 0 0 0 0 0 0 0 0 0 0 0 1 1 1 1 0 0
1 1 1 1 1 1 1 0 0 0 0 0 0 0 0 0 0 0 0 0 0 0 0 0 0 0 0 0 0 0 0 0 0 0 0 0 0 1 1 1 1 0 0
1 1 1 1 1 1 1 1 0 0 0 0 0 0 0 0 0 0 0 0 0 0 0 0 0 0 0 0 0 0 0 0 0 0 0 0 0 0 1 1 1 0 0
1 1 1 1 1 1 1 1 1 0 0 0 0 0 0 0 0 0 0 0 0 0 0 0 0 0 0 0 0 0 0 0 0 0 0 0 0 0 1 1 1 0 0
1 1 1 1 1 1 1 1 1 0 0 0 0 0 0 0 0 0 0 0 0 0 0 0 0 0 0 0 0 0 0 0 0 0 0 0 0 0 0 0 1 0 0
1 1 1 1 1 1 1 1 1 0 0 0 0 0 0 0 0 0 0 0 0 0 0 0 0 0 0 0 0 0 0 0 0 0 0 0 0 0 0 0 0 0 1
0 1 1 1 1 1 1 1 0 0 0 0 0 0 0 0 0 0 0 0 0 0 0 0 0 0 0 0 0 0 0 0 0 0 0 0 0 0 0 0 0 0 0
0 1 1 1 1 1 1 1 0 0 0 0 0 0 0 0 0 0 0 0 0 0 0 0 0 0 1 0 0 0 0 0 0 0 0 0 0 0 0 0 0 0 0
0 0 1 1 1 1 1 1 1 0 0 0 0 0 0 0 0 0 0 0 0 0 0 0 0 1 1 1 0 0 0 0 0 0 0 0 0 0 0 0 0 0 0
0 0 0 1 1 2 2 1 1 0 0 0 0 0 0 0 0 0 0 0 0 0 0 0 0 1 1 1 0 0 0 0 0 0 0 0 0 0 0 0 0 0 0
0 0 0 1 1 1 2 1 1 0 0 0 0 0 0 0 0 0 0 0 0 0 0 0 0 0 1 1 0 0 0 0 0 0 0 0 0 0 0 0 0 0 0
0 0 0 0 1 1 1 1 1 0 0 0 0 0 0 0 0 0 0 0 0 0 0 0 0 0 1 0 0 0 0 0 0 0 0 0 0 0 0 0 0 0 0
0 0 0 0 0 1 1 1 1 0 0 0 0 0 0 0 0 0 0 0 0 0 0 0 0 0 0 0 0 0 0 0 0 0 0 0 0 0 0 0 0 0 0
0 0 0 0 0 0 1 1 0 0 0 0 0 0 0 0 0 0 0 0 0 0 0 0 0 0 0 0 0 0 0 0 0 0 0 0 0 0 0 0 0 0 0
Wind_Speed
2 3 4 5 6 7 8 8 9 9 8 8 8 8 8 8 8 8 7 7 7 7 8 8 8 9 9 9 9 9 9 10 10 11 10 10 10 11 11 11 9 7 11
5 5 5 5 7 7 8 8 8 8 8 8 8 8 8 8 8 7 6 6 7 7 7 8 8 9 9 9 9 9 9 9 9 9 9 8 9 9 10 10 9 6 10
6 5 4 5 6 7 7 7 7 8 8 8 7 7 7 7 7 7 7 7 6 7 7 7 8 8 8 8 8 8 8 8 9 8 8 4 5 8 9 9 9 9 9
6 5 4 5 6 6 7 7 7 7 7 7 7 7 6 6 7 7 7 6 6 6 6 7 7 8 8 7 7 8 8 8 8 7 4 3 3 6 7 8 8 8 8
5 5 4 5 6 6 6 7 7 6 6 6 6 6 6 6 6 7 6 6 6 6 6 6 6 7 7 7 7 7 7 8 7 6 3 3 2 5 6 7 7 7 7
5 4 4 6 6 6 6 6 6 6 5 6 6 6 6 6 6 6 6 5 6 6 6 6 6 6 6 6 6 6 7 7 5 3 2 2 2 5 5 6 6 6 6
4 3 4 5 6 6 6 6 6 5 5 5 5 5 6 6 6 5 5 5 5 5 5 5 5 5 5 5 6 6 6 5 3 3 2 1 2 4 4 4 5 5 5
5 4 3 4 5 5 5 5 5 5 5 4 4 5 5 5 5 5 5 5 5 5 5 5 5 5 5 5 5 5 5 4 3 2 1 1 2 3 3 4 4 4 4
5 4 3 3 3 4 4 4 4 4 4 4 4 4 5 5 5 5 5 5 4 4 5 4 4 5 4 4 4 4 5 4 2 1 1 0 2 2 3 3 3 3 3
4 4 3 2 2 2 2 3 3 3 3 4 4 5 5 4 4 5 4 4 4 4 4 4 4 4 4 4 4 4 4 3 1 1 0 1 1 2 2 2 2 2 2
3 2 2 2 2 2 2 2 2 3 3 4 4 5 5 2 2 3 3 4 3 3 3 3 3 5 4 4 4 4 3 1 1 0 0 1 2 2 2 1 1 2 2
2 2 2 2 2 1 1 2 1 2 2 2 2 3 2 2 2 3 4 4 3 3 3 3 3 4 3 2 2 3 1 1 0 1 1 1 2 3 2 2 1 1 2
3 2 2 2 2 2 1 1 1 1 1 2 2 3 3 2 2 2 2 2 2 3 2 2 2 1 1 1 1 1 1 1 0 1 1 1 2 3 3 2 2 1 2
2 2 1 2 2 2 1 1 1 1 1 1 1 3 3 2 1 1 1 1 1 1 1 1 1 1 1 1 1 1 0 0 1 1 1 2 2 3 3 3 3 3 3
2 1 1 2 2 2 2 2 2 1 2 2 1 2 2 2 2 1 1 1 1 1 1 0 0 1 1 1 0 0 0 0 1 1 1 2 3 3 4 4 4 4 4
2 1 1 1 1 1 2 2 2 2 1 1 1 2 2 2 2 2 1 1 1 0 0 0 0 0 0 0 1 1 0 0 1 1 1 2 3 3 4 5 4 4 4
1 1 1 2 1 1 1 2 2 2 2 1 1 2 2 2 2 2 2 1 1 0 0 1 1 1 1 1 1 1 1 1 1 1 1 1 2 3 4 4 5 4 4
0 1 1 1 1 1 1 1 1 1 2 1 1 1 1 1 2 1 1 1 1 1 0 1 1 1 1 1 1 1 1 1 1 1 1 1 1 2 3 3 3 4 4
1 1 1 1 2 2 1 1 1 2 2 1 1 1 1 1 2 1 1 1 1 1 0 0 1 1 1 1 1 1 1 1 1 1 1 1 1 1 1 3 3 3 4
1 1 1 1 2 1 1 1 1 1 1 1 1 0 1 1 1 1 1 1 2 1 0 0 1 0 1 0 1 2 2 2 1 1 1 1 1 2 2 2 2 2 3
2 1 0 1 1 1 1 1 1 1 1 0 0 0 1 1 1 1 1 1 1 1 2 2 1 1 1 1 1 2 2 2 1 1 1 1 2 2 2 2 2 2 2
1 1 0 1 1 1 1 1 1 1 1 1 0 0 0 0 0 1 2 2 2 1 2 2 2 1 0 1 1 1 2 3 3 2 1 1 2 2 2 2 2 2 2
1 1 1 1 1 1 1 1 1 1 1 1 0 0 1 1 0 0 2 2 2 2 3 3 2 3 2 0 1 2 1 2 3 2 2 2 2 2 2 2 2 2 2
1 1 1 1 1 1 2 2 3 2 2 1 1 1 1 1 1 0 1 2 2 2 2 2 2 2 3 2 0 0 1 1 1 2 3 2 2 3 3 2 2 2 2
1 1 1 1 1 0 1 2 3 2 1 0 0 0 1 1 1 1 1 1 1 2 2 2 2 2 2 2 2 1 0 1 1 1 3 3 3 3 3 3 2 2 2
1 1 1 1 1 1 0 1 2 2 1 1 1 1 1 1 1 1 1 1 2 2 2 2 3 3 3 2 2 2 2 2 1 1 2 3 4 4 3 3 2 2 2
Wind_Direction
169 167 161 145 128 120 114 115 114 111 106 104 103 102 102 101 98 96 95 94 96 97 98 96 93 92 89 88 85 82 80 79 76 74 73 74 78 82 84 78 72 71 76
155 158 151 144 131 125 120 115 110 110 106 104 105 105 104 104 100 99 99 96 99 103 103 98 97 96 90 88 89 86 84 82 77 72 69 71 75 81 84 81 77 78 78
133 145 147 134 126 124 121 118 114 110 108 104 102 105 106 104 103 100 99 99 99 102 103 101 100 98 94 90 89 89 87 85 79 70 62 56 72 82 86 83 79 80 78
134 140 147 127 124 123 120 122 117 113 109 106 105 103 105 108 107 105 98 98 99 100 105 103 102 97 95 93 91 91 92 89 76 66 55 43 66 86 88 85 81 80 77
130 138 142 126 125 121 119 119 118 117 114 107 103 100 101 105 105 102 101 95 93 95 98 102 103 99 93 89 90 93 92 87 72 63 55 49 60 87 88 89 86 82 79
127 135 141 126 124 120 119 118 116 117 116 111 104 95 96 104 107 105 101 101 93 87 91 91 98 98 95 90 86 90 92 84 68 61 60 53 64 89 89 94 94 88 85
123 128 137 126 124 121 117 118 121 119 115 115 109 101 98 98 102 103 98 95 99 89 91 90 88 91 91 92 86 85 83 70 71 66 56 54 81 96 95 97 100 96 95
121 120 127 119 117 119 120 117 115 115 114 114 112 109 103 97 95 98 95 93 93 95 88 94 92 91 88 88 88 88 78 70 73 69 48 50 92 103 104 101 99 100 101
109 112 112 113 111 110 114 117 116 112 107 110 109 105 97 93 89 89 90 93 92 96 89 90 95 89 85 85 88 86 75 67 78 78 56 76 110 122 115 109 103 99 103
102 110 114 109 105 116 130 121 116 110 106 107 102 91 83 83 83 81 82 89 94 99 95 86 96 92 81 71 71 76 68 55 82 80 332 151 145 149 134 121 115 112 118
93 100 115 118 107 107 117 114 117 110 102 99 101 92 82 67 67 73 72 79 84 88 93 87 91 86 71 63 56 61 59 58 66 297 241 165 180 179 168 154 137 144 154
144 141 146 146 142 128 127 115 126 132 125 113 109 102 92 80 71 69 68 73 67 64 64 67 65 81 70 54 47 51 46 35 41 276 260 225 208 208 201 194 196 192 192
168 144 161 161 154 146 140 136 137 133 125 120 120 112 103 87 74 66 65 55 43 48 39 28 23 36 62 65 70 45 35 14 314 277 268 259 231 224 227 227 225 225 218
151 172 166 146 148 157 151 154 150 136 131 127 133 122 116 107 86 73 73 75 49 38 38 24 14 7 35 70 91 78 53 338 310 298 274 281 256 240 243 246 245 244 239
166 196 174 149 149 158 156 154 140 141 138 144 139 127 127 129 134 132 124 103 79 49 63 35 31 19 16 24 34 81 7 281 291 295 296 301 284 261 249 249 250 250 248
187 194 181 154 156 152 154 153 150 146 132 131 133 136 137 134 146 152 148 146 121 56 291 172 138 72 349 7 336 322 296 300 291 300 297 311 312 290 260 245 247 253 255
205 178 167 173 137 144 157 155 142 140 135 138 145 146 142 143 157 164 159 166 172 138 36 101 104 67 37 29 334 317 312 290 294 297 302 304 309 312 290 257 250 253 258
184 169 174 160 144 151 137 147 143 134 127 142 148 148 149 151 155 161 160 178 173 109 88 124 118 78 35 15 332 319 309 298 295 298 304 314 316 317 310 294 274 264 266
183 177 164 162 163 173 166 154 142 132 129 135 124 139 165 152 151 163 174 179 151 116 129 171 94 114 85 2 318 318 311 293 283 314 315 314 303 317 333 320 309 306 289
124 148 159 159 162 159 150 118 110 112 111 112 138 154 167 165 147 141 161 170 149 137 152 169 116 81 121 74 334 331 311 298 306 313 311 315 318 334 343 339 319 305 312
37 43 117 142 144 133 137 157 165 180 181 165 184 185 182 169 158 153 158 168 158 173 194 188 146 120 55 64 55 350 331 316 323 315 313 316 323 325 337 330 314 305 293
32 3 5 179 173 176 177 192 200 181 194 192 315 23 28 351 206 176 176 190 191 186 188 187 142 121 80 79 114 86 330 326 326 306 306 302 311 331 326 320 308 292 288
332 302 312 273 207 191 165 123 79 68 67 75 316 299 321 300 245 209 207 199 201 192 197 196 181 161 171 210 124 147 173 246 308 307 299 287 298 308 302 301 302 298 297
281 297 295 284 242 207 171 163 162 175 196 219 220 258 303 304 303 286 230 210 200 201 200 201 197 188 167 180 235 297 210 186 215 302 311 307 304 291 288 298 298 296 296
309 327 321 344 321 279 189 180 182 195 214 198 161 217 277 292 303 306 245 216 215 216 208 202 202 192 183 180 187 190 210 322 282 242 285 306 310 291 287 286 283 288 290
349 11 3 18 5 358 334 183 186 193 191 178 204 228 257 291 301 283 259 238 229 228 222 215 206 199 201 191 192 189 182 189 216 230 262 285 291 293 290 281 275 276 282